Terug naar catalogus

CZ-6A DEB

ActiefPO
NORAD 61429·DEBRIS·🇨🇳 China

Gelanceerd Aug 6, 2024 vanaf Taiyuan Satellite Launch Center

Loading…

Volgende Passages (komende 24 uur)

TLE

VersSource: Space-Track

Epoch: Sep 14, 2026, 22:51 UTC

1 61429U 24140YW  26257.95276566  .00004089  00000-0  10976-2 0  9997
2 61429  88.9582 258.3450 0143983  81.7833 279.9670 14.41943511108382

Volg CZ-6A DEB in realtime met AllMySat

Download on the App Store